[[{"header":{"parameterUnit":"m.s-1","parameterCategory":1,"la1":30.2991,"la2":30.254,"lo1":-89.0895,"lo2":-89.0444,"dy":0.0017,"dx":0.0017,"nx":28,"ny":28,"refTime":"2024-12-02T09:00:00:Z","depth":0,"parameterNumber":2,"parameterNumberName":"U-component_of_WINDS"},"data":[0,0,0,0,0,0,0,0,0,0,0,0,0,0,0,0,0,0,0,0,0,0,0,0,0,0,0,0,0,0,0,0,0,0,0,0,0,0,0,0,0,0,0,0,0,0,0,0,0,0,0,0,0,0,0,0,0,0,-3.4462,-3.4462,0,-3.4522,-3.4523,-3.4524,-3.4447,-3.4444,-3.4441,-3.4438,-3.4499,-3.4504,-3.4508,0,0,0,0,0,0,0,0,0,0,0,0,0,-3.4277,-3.4281,-3.4462,-3.4463,-3.4463,-3.4522,-3.4523,-3.4524,-3.4447,-3.4444,-3.444,-3.4437,-3.4498,-3.4503,-3.4508,0,0,0,0,0,0,0,0,0,0,0,0,0,-3.4349,-3.4282,-3.4462,-3.4432,-3.443,-3.4522,-3.4523,-3.4524,-3.4448,-3.4444,-3.4439,-3.4435,-3.4496,-3.4503,-3.4509,-3.4633,0,0,-3.4528,-3.4531,0,0,0,0,0,0,0,0,-3.4345,-3.4356,-3.4436,-3.4434,-3.4432,-3.4473,-3.448,-3.4561,-3.4449,-3.4441,-3.4438,-3.4433,-3.4494,-3.45,-3.4521,-3.4636,-3.4638,-3.4529,-3.4533,-3.4536,-3.4537,0,0,0,0,0,0,0,-3.4341,-3.4353,-3.4486,-3.4437,-3.4435,-3.4415,-3.4421,-3.4495,-3.449,-3.4441,-3.4436,-3.4444,-3.4492,-3.4515,-3.4522,-3.4639,-3.4529,-3.4534,-3.4538,-3.4541,-3.4856,-3.486,0,0,0,0,0,0,-3.4339,-3.435,-3.4484,-3.4487,-3.4378,-3.4422,-3.4428,-3.4464,-3.4489,-3.4489,-3.4448,-3.444,-3.4506,-3.4514,-3.4524,-3.4668,-3.4536,-3.4541,-3.4545,-3.4851,-3.4857,-3.4862,0,0,0,0,0,0,-3.4336,-3.4352,-3.4481,-3.4417,-3.4432,-3.4429,-3.447,-3.4467,-3.449,-3.4494,-3.4493,-3.4472,-3.4503,-3.4515,-3.4606,-3.4669,-3.4544,-3.455,-3.4846,-3.4853,-3.4859,-3.4959,0,0,0,0,0,0,-3.4331,-3.4351,-3.4399,-3.4419,-3.4436,-3.4563,-3.4474,-3.4472,-3.4501,-3.4492,-3.4517,-3.4517,-3.4501,-3.4597,-3.4612,-3.4675,-3.4555,-3.484,-3.4849,-3.4857,-3.495,-3.4968,-3.4984,0,0,0,0,0,-3.4324,-3.4425,-3.4402,-3.4418,-3.4495,-3.4567,-3.4577,-3.4557,-3.4507,-3.4554,-3.4556,-3.4516,-3.466,-3.4607,-3.4623,-3.469,-3.4836,-3.4846,-3.4856,-3.4942,-3.4965,-3.4984,0,0,0,0,0,0,-3.4412,-3.4427,-3.4401,-3.4512,-3.4539,-3.4554,-3.4613,-3.4582,-3.4623,-3.4613,-3.4586,-3.4592,-3.4689,-3.4699,-3.4639,-3.4809,-3.474,-3.4754,-3.4799,-3.4821,-3.4837,-3.4832,-3.456,0,0,0,0,0,-3.4445,-3.4502,-3.4512,-3.4608,-3.4623,-3.4616,-3.4647,-3.4629,-3.4655,-3.4666,-3.4676,-3.4703,-3.4754,-3.4788,-3.4836,-3.4952,-3.4954,-3.5006,-3.5023,-3.5037,-3.5048,-3.5108,-3.513,-3.4895,-3.4895,-3.4895,0,0,-3.4512,-3.4527,-3.4565,-3.4626,-3.4645,-3.4704,-3.4626,-3.4693,-3.4735,-3.4676,-3.4762,-3.477,-3.4799,-3.4902,-3.4948,-3.4913,-3.5114,-3.505,-3.5061,-3.5065,-3.5121,-3.5143,-3.5162,-3.4902,-3.4901,-3.49,0,0,-3.4664,-3.4682,-3.4763,-3.4783,-3.4813,-3.4807,-3.4827,-3.4847,-3.485,-3.4936,-3.4892,-3.4943,-3.5032,-3.5053,-3.5076,-3.5235,-3.5198,-3.5251,-3.5339,-3.5398,-3.5416,-3.5432,-3.5486,-3.5506,-3.5263,-3.5264,-3.5264,0,-3.4743,-3.4831,-3.4809,-3.4877,-3.4905,-3.4854,-3.4935,-3.4956,-3.4999,-3.5019,-3.4979,-3.5089,-3.5105,-3.5211,-3.525,-3.5271,-3.5291,-3.5247,-3.5416,-3.5431,-3.5446,-3.5497,-3.5518,-3.527,-3.5269,-3.5268,-3.5268,0,-3.4926,-3.4987,-3.5049,-3.5092,-3.5126,-3.5201,-3.5189,-3.5226,-3.5206,-3.5204,-3.5291,-3.5308,-3.5357,-3.5381,-3.5362,-3.5485,-3.5462,-3.542,-3.5348,-3.5475,-3.5522,-3.5542,-3.5278,-3.5276,-3.5274,-3.5273,0,0,-3.5134,-3.5163,-3.5186,-3.5203,-3.5232,-3.5279,-3.5351,-3.5398,-3.543,-3.5462,-3.552,-3.5596,-3.5557,-3.5582,-3.5565,-3.5617,-3.5738,-3.5568,-3.5568,-3.5596,-3.5871,-3.5901,-3.5924,-3.5715,-3.5719,-3.5721,-3.5868,0,-3.5284,-3.5408,-3.5389,-3.5508,-3.5563,-3.5516,-3.5578,-3.5602,-3.5602,-3.5648,-3.5649,-3.5702,-3.5647,-3.5662,-3.5711,-3.5713,-3.5792,-3.5703,-3.5766,-3.5769,-3.5758,-3.5949,-3.5981,-3.6118,-3.5886,-3.589,-3.5892,0,-3.5475,-3.5513,-3.5638,-3.5655,-3.5678,-3.5734,-3.5775,-3.5821,-3.5846,-3.5843,-3.5871,-3.5844,-3.5914,-3.5843,-3.5939,-3.5878,-3.5903,-3.5908,-3.5913,-3.5916,-3.5836,-3.5955,-3.6162,-3.6181,-3.5922,-3.5919,-3.5917,0,-3.5611,-3.5694,-3.5778,-3.5795,-3.5819,-3.5859,-3.5871,-3.5892,-3.5921,-3.5958,-3.5976,-3.602,-3.6044,-3.6078,-3.6063,-3.6014,-3.616,-3.6089,-3.6157,-3.6158,-3.6189,-3.6186,-3.64,-3.621,-3.6209,-3.6209,-3.6209,0,-3.5779,-3.5856,-3.5839,-3.5891,-3.5975,-3.5953,-3.6037,-3.6043,-3.6062,-3.6113,-3.6076,-3.6125,-3.6103,-3.615,-3.6139,-3.6218,-3.623,-3.6227,-3.6223,-3.6229,-3.6229,-3.6244,-3.6233,-3.6214,-3.6213,-3.6212,-3.6211,0,-3.5944,-3.5936,-3.6024,-3.604,-3.6045,-3.6107,-3.6119,-3.6167,-3.6164,-3.6229,-3.6243,-3.6239,-3.6292,-3.6281,-3.634,-3.6332,-3.643,-3.6415,-3.6421,-3.6417,-3.6485,-3.6478,-3.6713,-3.6741,-3.6536,-3.6538,-3.6539,0,-3.605,-3.6108,-3.6129,-3.6161,-3.6175,-3.6227,-3.6256,-3.6237,-3.6269,-3.6301,-3.6345,-3.6394,-3.6433,-3.652,-3.6521,-3.6565,-3.6549,-3.6629,-3.6556,-3.6559,-3.6547,-3.6543,-3.6547,-3.6643,-3.6645,-3.6647,-3.6649,0,-3.6239,-3.6231,-3.6275,-3.6318,-3.6354,-3.6387,-3.6415,-3.6443,-3.6426,-3.6463,-3.6517,-3.6547,-3.6606,-3.6655,-3.6696,-3.6707,-3.6674,-3.6672,-3.6689,-3.6695,-3.6695,-3.6693,-3.6458,-3.6666,-3.6664,-3.6663,-3.6662,-3.6661,-3.6376,-3.6424,-3.6446,-3.6495,-3.6515,-3.6543,-3.6587,-3.659,-3.6635,-3.6681,-3.6667,-3.6728,-3.675,-3.6801,-3.6817,-3.6863,-3.6833,-3.6859,-3.6865,-3.6872,-3.6878,-3.669,-3.6871,-3.687,-3.687,-3.6869,-3.6869,0,-3.6559,-3.6571,-3.6617,-3.6658,-3.6697,-3.6664,-3.6694,-3.6728,-3.6781,-3.6805,-3.6844,-3.6904,-3.6951,-3.6957,-3.7001,-3.7037,-3.7023,-3.7049,-3.7044,-3.7047,-3.6904,-3.6883,-3.7059,-3.7059,-3.7059,-3.7059,-3.7059,-3.7059,-3.6659,-3.6739,-3.6734,-3.6822,-3.6833,-3.6892,-3.6912,-3.6936,-3.6954,-3.7024,-3.7063,-3.7066,-3.7082,-3.7126,-3.7168,-3.7168,-3.7185,-3.7216,-3.721,-3.7076,-3.7057,-3.7039,-3.7019,-3.7221,-3.7221,-3.7349,-3.735,-3.7351]},{"header":{"parameterUnit":"m.s-1","parameterCategory":1,"la1":30.2991,"la2":30.254,"lo1":-89.0895,"lo2":-89.0444,"dy":0.0017,"dx":0.0017,"nx":28,"ny":28,"refTime":"2024-12-02T09:00:00:Z","depth":0,"parameterNumber":3,"parameterNumberName":"V-component_of_WINDS"},"data":[0,0,0,0,0,0,0,0,0,0,0,0,0,0,0,0,0,0,0,0,0,0,0,0,0,0,0,0,0,0,0,0,0,0,0,0,0,0,0,0,0,0,0,0,0,0,0,0,0,0,0,0,0,0,0,0,0,0,-2.3676,-2.3677,0,-2.3733,-2.3734,-2.3734,-2.3721,-2.372,-2.3718,-2.3717,-2.3774,-2.3777,-2.3779,0,0,0,0,0,0,0,0,0,0,0,0,0,-2.3554,-2.3557,-2.3676,-2.3677,-2.3678,-2.3733,-2.3734,-2.3734,-2.3721,-2.372,-2.3718,-2.3717,-2.3773,-2.3776,-2.3779,0,0,0,0,0,0,0,0,0,0,0,0,0,-2.3609,-2.3557,-2.3676,-2.3678,-2.3678,-2.3733,-2.3734,-2.3735,-2.3721,-2.3719,-2.3718,-2.3716,-2.3772,-2.3776,-2.378,-2.3836,0,0,-2.3791,-2.3793,0,0,0,0,0,0,0,0,-2.3606,-2.3613,-2.3677,-2.3678,-2.3679,-2.3718,-2.3711,-2.3768,-2.3722,-2.3705,-2.3717,-2.3716,-2.3757,-2.3762,-2.3776,-2.3838,-2.3841,-2.3792,-2.3794,-2.3796,-2.3797,0,0,0,0,0,0,0,-2.3602,-2.3611,-2.3699,-2.3678,-2.3679,-2.3675,-2.3681,-2.3722,-2.3739,-2.3706,-2.3705,-2.3712,-2.3757,-2.3772,-2.3777,-2.3842,-2.3792,-2.3795,-2.3797,-2.3799,-2.3951,-2.3953,0,0,0,0,0,0,-2.3598,-2.3608,-2.3697,-2.37,-2.3637,-2.3678,-2.3685,-2.3707,-2.3739,-2.3742,-2.3714,-2.3711,-2.3767,-2.3773,-2.3779,-2.3845,-2.3796,-2.3799,-2.3801,-2.3949,-2.3951,-2.3953,0,0,0,0,0,0,-2.3595,-2.3606,-2.3695,-2.3654,-2.3665,-2.3682,-2.3707,-2.3709,-2.3724,-2.3744,-2.3747,-2.3726,-2.3766,-2.3774,-2.3821,-2.3847,-2.3801,-2.3804,-2.3947,-2.395,-2.3952,-2.3979,0,0,0,0,0,0,-2.3592,-2.3605,-2.3627,-2.3654,-2.3667,-2.3737,-2.3709,-2.3711,-2.3731,-2.3729,-2.3757,-2.376,-2.3765,-2.3816,-2.3825,-2.3851,-2.3807,-2.3945,-2.3948,-2.3951,-2.3976,-2.3982,-2.3988,0,0,0,0,0,-2.3587,-2.3632,-2.3628,-2.3639,-2.3695,-2.3738,-2.3745,-2.375,-2.3733,-2.3755,-2.3767,-2.3759,-2.3843,-2.3821,-2.3831,-2.3859,-2.3943,-2.3947,-2.3951,-2.3973,-2.3981,-2.3988,0,0,0,0,0,0,-2.3607,-2.3636,-2.3632,-2.3687,-2.371,-2.3736,-2.3764,-2.3759,-2.3787,-2.3784,-2.3788,-2.3795,-2.3843,-2.3856,-2.3831,-2.3914,-2.389,-2.3897,-2.3904,-2.3911,-2.3917,-2.3912,-2.381,0,0,0,0,0,-2.3618,-2.3652,-2.3675,-2.3721,-2.3733,-2.3746,-2.3765,-2.3767,-2.3791,-2.3801,-2.3817,-2.384,-2.3872,-2.3892,-2.3922,-2.3978,-2.3983,-2.4002,-2.4008,-2.4013,-2.4018,-2.4046,-2.4055,-2.3966,-2.3966,-2.3966,0,0,-2.3641,-2.3661,-2.3682,-2.3726,-2.3744,-2.3777,-2.3755,-2.3791,-2.3816,-2.3806,-2.3852,-2.3865,-2.3891,-2.3942,-2.3966,-2.3954,-2.4043,-2.4018,-2.4021,-2.4024,-2.4051,-2.406,-2.4067,-2.3969,-2.3969,-2.3968,0,0,-2.3699,-2.3718,-2.3758,-2.3777,-2.3805,-2.3813,-2.3823,-2.3849,-2.3857,-2.3903,-2.3896,-2.3925,-2.3979,-2.3998,-2.4014,-2.4078,-2.4071,-2.4088,-2.4118,-2.4146,-2.4153,-2.4159,-2.4181,-2.4189,-2.4093,-2.4093,-2.4093,0,-2.3724,-2.3775,-2.3779,-2.3816,-2.3835,-2.3828,-2.3868,-2.3886,-2.3922,-2.3935,-2.3922,-2.3989,-2.4006,-2.4061,-2.4077,-2.4091,-2.4101,-2.4084,-2.4152,-2.4158,-2.4164,-2.4185,-2.4193,-2.4095,-2.4095,-2.4095,-2.4094,0,-2.3803,-2.3838,-2.3867,-2.3902,-2.3924,-2.3962,-2.3972,-2.3994,-2.3993,-2.4003,-2.4049,-2.4069,-2.4103,-2.4116,-2.4116,-2.417,-2.4162,-2.4151,-2.4127,-2.4174,-2.4193,-2.4201,-2.4098,-2.4097,-2.4096,-2.4096,0,0,-2.3875,-2.3912,-2.3922,-2.3937,-2.3967,-2.3994,-2.4031,-2.4064,-2.4082,-2.4107,-2.4137,-2.4183,-2.4172,-2.4191,-2.4193,-2.4218,-2.4265,-2.4203,-2.4203,-2.4213,-2.4325,-2.4332,-2.4342,-2.4261,-2.4262,-2.4264,-2.4322,0,-2.3935,-2.4001,-2.4006,-2.4066,-2.4097,-2.409,-2.4123,-2.4144,-2.4154,-2.4181,-2.4192,-2.4223,-2.4207,-2.4218,-2.4242,-2.4254,-2.4287,-2.425,-2.4288,-2.429,-2.4281,-2.4352,-2.4361,-2.4415,-2.433,-2.4331,-2.4332,0,-2.4014,-2.4041,-2.4103,-2.4127,-2.4141,-2.417,-2.4199,-2.4226,-2.425,-2.4255,-2.4275,-2.4274,-2.4311,-2.4286,-2.4337,-2.4312,-2.4328,-2.4336,-2.4338,-2.4341,-2.4313,-2.4356,-2.4432,-2.444,-2.4344,-2.4343,-2.4342,0,-2.4059,-2.4111,-2.4154,-2.4168,-2.4197,-2.4217,-2.4231,-2.4252,-2.4271,-2.4297,-2.4309,-2.4339,-2.4355,-2.4378,-2.4384,-2.4366,-2.4434,-2.4411,-2.4439,-2.4438,-2.4453,-2.4451,-2.4532,-2.4465,-2.4465,-2.4464,-2.4464,0,-2.4124,-2.4163,-2.4175,-2.4202,-2.4244,-2.4249,-2.429,-2.4302,-2.4321,-2.4349,-2.4345,-2.4372,-2.4379,-2.4406,-2.4411,-2.4452,-2.4459,-2.4464,-2.4464,-2.4464,-2.4463,-2.4473,-2.4469,-2.4467,-2.4466,-2.4466,-2.4465,0,-2.4181,-2.4191,-2.4238,-2.4262,-2.4269,-2.4299,-2.4319,-2.4344,-2.4353,-2.4388,-2.4397,-2.4411,-2.4443,-2.4451,-2.449,-2.4493,-2.454,-2.4538,-2.4532,-2.4532,-2.4559,-2.4556,-2.4648,-2.466,-2.4586,-2.4587,-2.4587,0,-2.4222,-2.4251,-2.4278,-2.4297,-2.4311,-2.4341,-2.436,-2.4366,-2.4386,-2.4414,-2.4435,-2.4467,-2.4492,-2.4544,-2.4557,-2.4586,-2.4583,-2.4614,-2.4588,-2.4585,-2.4582,-2.458,-2.4582,-2.4618,-2.4619,-2.462,-2.462,0,-2.4293,-2.4296,-2.4324,-2.4354,-2.4376,-2.44,-2.4422,-2.4438,-2.4446,-2.4469,-2.4501,-2.4521,-2.456,-2.4591,-2.462,-2.4633,-2.4628,-2.4628,-2.4636,-2.4635,-2.463,-2.4632,-2.4544,-2.4626,-2.4625,-2.4625,-2.4625,-2.4624,-2.4342,-2.4367,-2.439,-2.442,-2.4438,-2.4458,-2.4483,-2.4495,-2.4522,-2.4554,-2.4556,-2.4591,-2.4612,-2.4651,-2.4665,-2.4692,-2.4683,-2.4695,-2.4697,-2.47,-2.4702,-2.4627,-2.4698,-2.4698,-2.4697,-2.4697,-2.4697,0,-2.4412,-2.4426,-2.4454,-2.4485,-2.4509,-2.4503,-2.4527,-2.4547,-2.4578,-2.4598,-2.4623,-2.466,-2.469,-2.4705,-2.4735,-2.4753,-2.4751,-2.4761,-2.4759,-2.4761,-2.4709,-2.4699,-2.4761,-2.4761,-2.4761,-2.4761,-2.4761,-2.4761,-2.4451,-2.4492,-2.4498,-2.4547,-2.4561,-2.4595,-2.4609,-2.4628,-2.4644,-2.4686,-2.471,-2.472,-2.4738,-2.4768,-2.4795,-2.4799,-2.4809,-2.4819,-2.4822,-2.4772,-2.4765,-2.4759,-2.4749,-2.4822,-2.4822,-2.4872,-2.4872,-2.4873]}]]